Starlink 35537

operational
NORAD ID: 66234 Int'l Des: 2025-245 Owner: SPXS Country: US Constellation: starlink
NOTLE

About Starlink 35537

Description loading...

Live Position

Loading 3D Globe...

Upcoming Passes

Altitude History

Altitude vs Time

uPlot chart will show altitude changes over time

Two-Line Element Set

1 66234U 25245A 25318.83334491 -.00563386 00000-0 -40686-2 0 9992
2 66234 53.1578 102.2904 0001407 30.4788 297.5425 15.74394894 3621
Epoch: Nov 14, 2025 • Age: 7 hours

Current Status

Altitude 355.6 km
Velocity 7.70 km/s
Sub-Earth Point -24.81°S, 160.37°W
Launch Date Oct 29, 2025
Age 16 days
Type internet

Technical Details

Classification Payload
Mass 575.00 kg
Dry Mass 530.00 kg
Total Mass 575.00 kg
Length 0.30 m
Diameter 4.10 m
Span 29.00 m
Shape Box + pan
Manufacturer SPXS
Bus Type Starlink V2MO
Phase Status In Orbit
Owner/State SPXS/US

Large Constellations

Loading constellations...